Location: Casco Volunteer Fire Department
(44.5576°N, 87.6146°W)
Time: 15:37:36
(UTC+00:00)

Cosmos 676 Rocket - Visible Passes

Search period start: 19 April 2026 00:00
Search period end: 29 April 2026 00:00
Orbit: 749 x 780 km, 74.0° (Epoch: 19 April)

Date Brightness Start Highest point End Pass type
(mag) Time Alt. Az. Time Alt. Az. Time Alt. Az.
19 Apr 5.4 04:47:38 10° N 04:51:17 31° NNE 04:51:17 31° NNE visible
19 Apr 6.1 06:29:45 10° NW 06:31:27 19° NW 06:31:27 19° NW visible
20 Apr 5.7 04:09:55 10° N 04:13:45 22° NE 04:13:45 22° NE visible
20 Apr 5.6 05:51:15 10° NNW 05:53:56 29° NW 05:53:56 29° NW visible
21 Apr 6.1 03:32:36 10° NNE 03:35:28 15° NE 03:36:15 14° ENE visible
21 Apr 5.1 05:12:59 10° NNW 05:16:26 42° NNW 05:16:26 42° NNW visible
22 Apr 4.9 04:34:55 10° NNW 04:38:57 44° NNE 04:38:57 44° NNE visible
22 Apr 6.3 06:17:45 10° NW 06:19:08 15° WNW 06:19:08 15° WNW visible
23 Apr 5.2 03:57:01 10° N 04:01:29 32° NE 04:01:29 32° NE visible
23 Apr 5.7 05:38:58 10° NW 05:41:40 26° WNW 05:41:40 26° WNW visible
24 Apr 5.7 03:19:22 10° N 03:23:16 20° NE 03:24:02 20° ENE visible
24 Apr 4.9 05:00:31 10° NNW 05:04:13 43° NW 05:04:13 43° NW visible
25 Apr 6.1 02:42:11 10° NNE 02:44:40 13° NE 02:46:36 11° ENE visible
25 Apr 4.3 04:22:18 10° NNW 04:26:47 63° N 04:26:47 63° N visible
25 Apr 6.5 06:06:18 10° WNW 06:06:58 12° WNW 06:06:58 12° WNW visible
26 Apr 4.5 03:44:16 10° N 03:49:21 46° ENE 03:49:23 46° ENE visible
26 Apr 5.9 05:26:53 10° NW 05:29:34 21° WNW 05:29:34 21° WNW visible
27 Apr 5.1 03:06:25 10° N 03:10:58 29° ENE 03:11:59 27° ENE visible
27 Apr 5.1 04:48:11 10° NW 04:52:11 37° WNW 04:52:11 37° WNW visible
28 Apr 5.8 02:28:50 10° N 02:32:29 19° NE 02:34:37 15° E visible
28 Apr 4.1 04:09:48 10° NNW 04:14:49 69° W 04:14:49 69° W visible
